AUA901G LOWW-LOWI

Flight info

Callsign AUA901G
Flight time 0h 43m
Altitude 30000
Route SOVIL DCT SITNI DCT BAGSI DCT NANIT NANIT2A
Aircraft A20N/M-SDE2E3FGHIJ1RWXY/LB1

Departure

Time 2026-05-06 03:27
Airport Vienna International Airport (LOWW)

Arrival

Time 2026-05-06 04:10
Airport Innsbruck Airport (LOWI)
Time Latitude Longitude Altitude Speed Heading
2026-05-06 03:09 48.11829 16.56987 609 ft 0 kts 206°
2026-05-06 03:19 48.11838 16.56993 623 ft 4 kts 206°
2026-05-06 03:19 48.11861 16.57011 625 ft 4 kts 206°
2026-05-06 03:20 48.11900 16.57004 622 ft 3 kts 116°
2026-05-06 03:20 48.11908 16.56979 618 ft 0 kts 116°
2026-05-06 03:23 48.11908 16.56980 609 ft 1 kts 116°
2026-05-06 03:23 48.11893 16.57026 612 ft 12 kts 116°
2026-05-06 03:23 48.11855 16.57160 614 ft 16 kts 94°
2026-05-06 03:23 48.11819 16.57323 611 ft 18 kts 117°
2026-05-06 03:24 48.11801 16.57461 616 ft 12 kts 127°
2026-05-06 03:24 48.11707 16.57513 618 ft 19 kts 164°
2026-05-06 03:24 48.11569 16.57572 613 ft 22 kts 164°
2026-05-06 03:24 48.11415 16.57637 620 ft 24 kts 163°
2026-05-06 03:25 48.11287 16.57688 614 ft 14 kts 176°
2026-05-06 03:25 48.11192 16.57632 614 ft 16 kts 207°
2026-05-06 03:25 48.11101 16.57616 615 ft 14 kts 140°
2026-05-06 03:25 48.11012 16.57623 609 ft 15 kts 206°
2026-05-06 03:26 48.10923 16.57561 620 ft 8 kts 213°
2026-05-06 03:26 48.10930 16.57488 617 ft 8 kts 295°
2026-05-06 03:26 48.10992 16.57297 613 ft 49 kts 296°
2026-05-06 03:26 48.11237 16.56541 617 ft 110 kts 296°
2026-05-06 03:27 48.11642 16.55285 621 ft 155 kts 294°
2026-05-06 03:27 48.12098 16.53827 1195 ft 152 kts 289°
2026-05-06 03:27 48.12182 16.52298 1903 ft 147 kts 261°
2026-05-06 03:27 48.11771 16.50808 2319 ft 165 kts 245°
2026-05-06 03:28 48.11178 16.49236 2634 ft 185 kts 244°
2026-05-06 03:28 48.10480 16.47453 2925 ft 212 kts 243°
2026-05-06 03:28 48.09676 16.45468 3441 ft 235 kts 240°
2026-05-06 03:28 48.08666 16.43383 4018 ft 256 kts 236°
2026-05-06 03:29 48.07585 16.41224 4935 ft 261 kts 236°
2026-05-06 03:29 48.06488 16.39029 5906 ft 265 kts 236°
2026-05-06 03:29 48.05399 16.36839 6848 ft 268 kts 236°
2026-05-06 03:29 48.04288 16.34582 7757 ft 270 kts 237°
2026-05-06 03:30 48.03487 16.32045 8716 ft 271 kts 255°
2026-05-06 03:30 48.03289 16.29221 9589 ft 278 kts 271°
2026-05-06 03:30 48.03364 16.26301 10341 ft 286 kts 270°
2026-05-06 03:30 48.03434 16.23216 10695 ft 309 kts 270°
2026-05-06 03:31 48.03501 16.19894 11046 ft 329 kts 270°
2026-05-06 03:31 48.03564 16.16440 11807 ft 334 kts 270°
2026-05-06 03:31 48.03627 16.12945 12644 ft 338 kts 270°
2026-05-06 03:31 48.03687 16.09408 13454 ft 342 kts 270°
2026-05-06 03:32 48.03746 16.05834 14195 ft 345 kts 269°
2026-05-06 03:32 48.03804 16.02229 14951 ft 348 kts 269°
2026-05-06 03:32 48.03860 15.98593 15676 ft 351 kts 269°
2026-05-06 03:32 48.03915 15.94939 16436 ft 353 kts 269°
2026-05-06 03:33 48.03970 15.91255 17153 ft 356 kts 269°
2026-05-06 03:33 48.04024 15.87543 17877 ft 359 kts 270°
2026-05-06 03:33 48.04078 15.83838 18521 ft 362 kts 269°
2026-05-06 03:33 48.04131 15.80077 19178 ft 363 kts 269°
2026-05-06 03:34 48.04184 15.76290 19815 ft 366 kts 269°
2026-05-06 03:34 48.04236 15.72476 20442 ft 368 kts 269°
2026-05-06 03:34 48.04286 15.68647 21072 ft 370 kts 269°
2026-05-06 03:34 48.04336 15.64789 21700 ft 372 kts 269°
2026-05-06 03:35 48.04384 15.60913 22294 ft 375 kts 269°
2026-05-06 03:35 48.04432 15.57003 22906 ft 377 kts 268°
2026-05-06 03:35 48.04479 15.53078 23509 ft 379 kts 268°
2026-05-06 03:35 48.04525 15.49119 23993 ft 382 kts 268°
2026-05-06 03:36 48.04569 15.45131 24509 ft 383 kts 268°
2026-05-06 03:36 48.04611 15.41143 25012 ft 384 kts 268°
2026-05-06 03:36 48.04654 15.37136 25491 ft 387 kts 268°
2026-05-06 03:36 48.04707 15.33111 25971 ft 389 kts 268°
2026-05-06 03:37 48.04775 15.29066 26449 ft 390 kts 268°
2026-05-06 03:37 48.04845 15.24990 26911 ft 392 kts 268°
2026-05-06 03:37 48.04913 15.20907 27339 ft 394 kts 268°
2026-05-06 03:37 48.04976 15.16855 27755 ft 396 kts 268°
2026-05-06 03:38 48.05039 15.12716 28173 ft 398 kts 268°
2026-05-06 03:38 48.05099 15.08577 28575 ft 400 kts 268°
2026-05-06 03:38 48.05158 15.04415 28941 ft 402 kts 268°
2026-05-06 03:38 48.05215 15.00242 29316 ft 403 kts 268°
2026-05-06 03:39 48.05271 14.96033 29661 ft 405 kts 268°
2026-05-06 03:39 48.05326 14.91817 29866 ft 407 kts 268°
2026-05-06 03:39 48.05431 14.83364 29895 ft 406 kts 267°
2026-05-06 03:40 48.05509 14.74922 29888 ft 406 kts 267°
2026-05-06 03:40 48.05571 14.66473 29889 ft 406 kts 267°
2026-05-06 03:41 48.05627 14.58028 29883 ft 406 kts 266°
2026-05-06 03:41 48.05682 14.49629 29876 ft 406 kts 266°
2026-05-06 03:42 48.05730 14.41190 29878 ft 406 kts 266°
2026-05-06 03:42 48.05647 14.32749 29873 ft 403 kts 260°
2026-05-06 03:43 48.04311 14.24695 29867 ft 398 kts 246°
2026-05-06 03:43 48.01923 14.17307 29872 ft 397 kts 242°
2026-05-06 03:44 47.99480 14.09920 29877 ft 397 kts 242°
2026-05-06 03:44 47.97031 14.02538 29884 ft 397 kts 242°
2026-05-06 03:45 47.94572 13.95158 29891 ft 397 kts 242°
2026-05-06 03:45 47.92113 13.87801 29892 ft 396 kts 242°
2026-05-06 03:46 47.89647 13.80445 29897 ft 396 kts 241°
2026-05-06 03:46 47.87194 13.73148 29891 ft 396 kts 241°
2026-05-06 03:47 47.84720 13.65811 29893 ft 395 kts 241°
2026-05-06 03:47 47.82243 13.58495 29886 ft 396 kts 241°
2026-05-06 03:48 47.79776 13.51219 29894 ft 394 kts 241°
2026-05-06 03:48 47.77414 13.44271 29875 ft 395 kts 241°
2026-05-06 03:49 47.74928 13.36974 29491 ft 393 kts 241°
2026-05-06 03:49 47.73693 13.33358 29205 ft 391 kts 241°
2026-05-06 03:49 47.72483 13.29821 28930 ft 388 kts 241°
2026-05-06 03:50 47.71259 13.26250 28650 ft 387 kts 241°
2026-05-06 03:50 47.70038 13.22691 28519 ft 387 kts 241°
2026-05-06 03:50 47.68813 13.19126 28390 ft 388 kts 241°
2026-05-06 03:50 47.67588 13.15565 28251 ft 387 kts 241°
2026-05-06 03:51 47.66376 13.12043 27624 ft 388 kts 241°
2026-05-06 03:51 47.65148 13.08484 27078 ft 384 kts 241°
2026-05-06 03:51 47.63937 13.04979 26570 ft 379 kts 241°
2026-05-06 03:51 47.62744 13.01530 26041 ft 374 kts 241°
2026-05-06 03:52 47.61565 12.98124 25515 ft 369 kts 241°
2026-05-06 03:52 47.60398 12.94756 24988 ft 365 kts 241°
2026-05-06 03:52 47.59244 12.91432 24465 ft 361 kts 241°
2026-05-06 03:52 47.58097 12.88128 23927 ft 361 kts 240°
2026-05-06 03:53 47.56954 12.84849 23435 ft 357 kts 240°
2026-05-06 03:53 47.55820 12.81592 22890 ft 353 kts 241°
2026-05-06 03:53 47.55075 12.79457 22546 ft 350 kts 241°
2026-05-06 03:53 47.53964 12.76277 22041 ft 346 kts 241°
2026-05-06 03:54 47.52505 12.72107 21374 ft 341 kts 241°
2026-05-06 03:54 47.51420 12.69014 20878 ft 337 kts 241°
2026-05-06 03:54 47.50693 12.66939 20551 ft 334 kts 241°
2026-05-06 03:54 47.49627 12.63899 20068 ft 331 kts 242°
2026-05-06 03:55 47.48584 12.60930 19590 ft 330 kts 242°
2026-05-06 03:55 47.47527 12.57929 19113 ft 328 kts 242°
2026-05-06 03:55 47.46461 12.54906 18629 ft 341 kts 242°
2026-05-06 03:55 47.45330 12.51702 18187 ft 357 kts 242°
2026-05-06 03:56 47.44177 12.48437 17767 ft 360 kts 242°
2026-05-06 03:56 47.43004 12.45119 16960 ft 367 kts 242°
2026-05-06 03:56 47.41825 12.41783 16435 ft 364 kts 242°
2026-05-06 03:56 47.40668 12.38495 15897 ft 358 kts 244°
2026-05-06 03:57 47.39863 12.35048 15377 ft 354 kts 257°
2026-05-06 03:57 47.39645 12.31481 14856 ft 353 kts 270°
2026-05-06 03:57 47.39923 12.27879 14339 ft 350 kts 276°
2026-05-06 03:57 47.40269 12.24325 13817 ft 348 kts 276°
2026-05-06 03:58 47.40608 12.20790 13267 ft 347 kts 276°
2026-05-06 03:58 47.40935 12.17334 12759 ft 343 kts 276°
2026-05-06 03:58 47.41259 12.13874 12268 ft 338 kts 276°
2026-05-06 03:58 47.41577 12.10449 11761 ft 335 kts 276°
2026-05-06 03:59 47.41891 12.07059 11284 ft 332 kts 276°
2026-05-06 03:59 47.42203 12.03683 10789 ft 331 kts 276°
2026-05-06 03:59 47.42512 12.00335 10410 ft 326 kts 276°
2026-05-06 03:59 47.42659 11.97073 10300 ft 313 kts 262°
2026-05-06 04:00 47.42020 11.94111 10192 ft 297 kts 238°
2026-05-06 04:00 47.40695 11.91899 10007 ft 285 kts 216°
2026-05-06 04:00 47.39017 11.90367 9673 ft 281 kts 211°
2026-05-06 04:00 47.37363 11.88931 9521 ft 270 kts 210°
2026-05-06 04:01 47.35789 11.87561 9494 ft 252 kts 210°
2026-05-06 04:01 47.34365 11.86279 9495 ft 228 kts 218°
2026-05-06 04:01 47.33490 11.84615 9519 ft 203 kts 245°
2026-05-06 04:01 47.33089 11.82793 9492 ft 171 kts 253°
2026-05-06 04:02 47.32844 11.81190 9262 ft 156 kts 254°
2026-05-06 04:02 47.32602 11.79579 9108 ft 163 kts 254°
2026-05-06 04:02 47.32360 11.77952 8897 ft 162 kts 254°
2026-05-06 04:02 47.32119 11.76355 8665 ft 162 kts 255°
2026-05-06 04:03 47.31881 11.74749 8436 ft 161 kts 254°
2026-05-06 04:03 47.31634 11.73108 8180 ft 163 kts 254°
2026-05-06 04:03 47.31391 11.71493 7928 ft 160 kts 254°
2026-05-06 04:03 47.31151 11.69892 7693 ft 157 kts 254°
2026-05-06 04:04 47.30928 11.68384 7438 ft 144 kts 254°
2026-05-06 04:04 47.30711 11.66939 7206 ft 146 kts 254°
2026-05-06 04:04 47.30488 11.65459 6984 ft 148 kts 254°
2026-05-06 04:04 47.30273 11.63997 6735 ft 145 kts 254°
2026-05-06 04:05 47.30054 11.62532 6505 ft 147 kts 255°
2026-05-06 04:05 47.29837 11.61070 6275 ft 146 kts 254°
2026-05-06 04:05 47.29621 11.59618 6025 ft 145 kts 255°
2026-05-06 04:05 47.29408 11.58185 5783 ft 145 kts 255°
2026-05-06 04:06 47.29194 11.56741 5517 ft 144 kts 255°
2026-05-06 04:06 47.28982 11.55309 5256 ft 143 kts 256°
2026-05-06 04:06 47.28772 11.53890 4999 ft 141 kts 257°
2026-05-06 04:06 47.28563 11.52477 4761 ft 140 kts 257°
2026-05-06 04:07 47.28356 11.51075 4540 ft 140 kts 257°
2026-05-06 04:07 47.28148 11.49669 4324 ft 141 kts 257°
2026-05-06 04:07 47.27940 11.48254 4106 ft 142 kts 256°
2026-05-06 04:07 47.27730 11.46829 3875 ft 143 kts 256°
2026-05-06 04:08 47.27521 11.45409 3623 ft 141 kts 256°
2026-05-06 04:08 47.27312 11.43993 3404 ft 141 kts 256°
2026-05-06 04:08 47.27088 11.42589 3149 ft 140 kts 255°
2026-05-06 04:08 47.26854 11.41205 2876 ft 138 kts 255°
2026-05-06 04:09 47.26639 11.39828 2696 ft 137 kts 257°
2026-05-06 04:09 47.26465 11.38446 2442 ft 136 kts 260°
2026-05-06 04:09 47.26312 11.37090 2177 ft 133 kts 261°
2026-05-06 04:09 47.26163 11.35749 1953 ft 133 kts 262°
2026-05-06 04:10 47.26035 11.34516 1897 ft 117 kts 261°
2026-05-06 04:10 47.25928 11.33536 1912 ft 77 kts 261°
2026-05-06 04:10 47.25880 11.33204 1907 ft 11 kts 234°
2026-05-06 04:10 47.25878 11.33149 1906 ft 5 kts
2026-05-06 04:11 47.25895 11.33223 1908 ft 17 kts 81°
2026-05-06 04:11 47.25917 11.33436 1909 ft 26 kts 82°
2026-05-06 04:11 47.25928 11.33631 1899 ft 12 kts 108°
2026-05-06 04:11 47.25876 11.33744 1916 ft 14 kts 127°
2026-05-06 04:12 47.25808 11.33885 1905 ft 20 kts 124°
2026-05-06 04:12 47.25776 11.34108 1896 ft 26 kts 81°
2026-05-06 04:12 47.25804 11.34371 1895 ft 25 kts 83°
2026-05-06 04:12 47.25821 11.34531 1891 ft 22 kts 82°
2026-05-06 04:13 47.25840 11.34719 1895 ft 15 kts 82°
2026-05-06 04:13 47.25843 11.34848 1900 ft 8 kts 126°
2026-05-06 04:13 47.25821 11.34872 1897 ft 4 kts 162°
2026-05-06 04:13 47.25803 11.34873 1897 ft 0 kts 176°